Location: Zagreb
(45.8000°N, 16.0000°E)
Time: 12:14:46
(UTC+01:00)

Vanguard 1 Rocket - Pass Details

Date: 09 October 2020
Orbit: 656 x 4221 km, 34.3° (Epoch: 28 October)

Event Time Altitude Azimuth Distance (km) Brightness Sun altitude
Rises 14:55:36 0° 206° (SSW) 3,492 11.5 29.9°
Reaches altitude 10° 14:58:21 10° 190° (S) 2,848 11.0 29.6°
Maximum altitude 15:03:29 22° 141° (SE) 2,678 10.1 29.0°
Drops below altitude 10° 15:11:09 10° 97° (E) 4,462 10.7 28.1°
Sets 15:16:59 0° 86° (E) 6,181 11.2 27.4°
